timestamp,wind_dir_avg,wind_spd_avg,wind_spd_max_dir,wind_spd_gust,battery_voltage,lat,long
2024-03-03 00:04:00+00:00,246.0,9.68,242.0,10.72,12.25,47.59359,-54.27349
2024-03-03 00:14:00+00:00,244.0,9.56,243.0,10.83,12.17,47.59359,-54.27349
2024-03-03 00:24:00+00:00,236.0,9.82,241.0,11.11,12.17,47.59359,-54.27349
2024-03-03 00:34:00+00:00,239.0,8.99,236.0,9.97,12.17,47.59359,-54.27349
2024-03-03 00:44:00+00:00,239.0,9.73,236.0,10.63,12.17,47.59359,-54.27349
2024-03-03 00:54:00+00:00,239.0,10.7,239.0,12.01,12.17,47.59359,-54.27349
2024-03-03 01:04:00+00:00,240.0,10.39,239.0,11.98,12.17,47.59359,-54.27349
2024-03-03 01:14:00+00:00,246.0,10.26,245.0,12.0,12.17,47.59359,-54.27349
2024-03-03 01:24:00+00:00,247.0,10.27,250.0,11.52,12.17,47.59359,-54.27349
2024-03-03 01:34:00+00:00,247.0,9.76,251.0,11.4,12.17,47.59359,-54.27349
2024-03-03 01:44:00+00:00,242.0,8.6,238.0,10.0,12.17,47.59359,-54.27349
2024-03-03 01:54:00+00:00,242.0,10.93,241.0,12.14,12.17,47.59359,-54.27349
2024-03-03 02:04:00+00:00,242.0,9.96,242.0,11.31,12.17,47.59359,-54.27349
2024-03-03 02:14:00+00:00,242.0,9.37,246.0,10.73,12.09,47.59359,-54.27349
2024-03-03 02:24:00+00:00,243.0,10.73,237.0,12.34,12.09,47.59359,-54.27349
2024-03-03 02:34:00+00:00,239.0,9.39,243.0,10.48,12.09,47.59359,-54.27349
2024-03-03 02:44:00+00:00,242.0,9.11,238.0,10.29,12.09,47.59359,-54.27349
2024-03-03 02:54:00+00:00,239.0,8.81,242.0,10.73,12.09,47.59359,-54.27349
2024-03-03 03:04:00+00:00,230.0,7.57,228.0,8.51,12.09,47.59359,-54.27349
2024-03-03 03:14:00+00:00,230.0,7.18,239.0,8.13,12.09,47.59359,-54.27349
2024-03-03 03:24:00+00:00,231.0,7.04,237.0,8.07,12.09,47.59359,-54.27349
2024-03-03 03:34:00+00:00,232.0,6.83,241.0,7.68,12.09,47.59359,-54.27349
2024-03-03 03:44:00+00:00,235.0,8.35,236.0,9.8,12.09,47.59359,-54.27349
2024-03-03 03:54:00+00:00,234.0,7.95,236.0,9.03,12.09,47.59359,-54.27349
2024-03-03 04:04:00+00:00,234.0,7.43,241.0,8.43,12.09,47.59359,-54.27349
2024-03-03 04:14:00+00:00,236.0,7.81,236.0,8.5,12.09,47.59359,-54.27349
2024-03-03 04:24:00+00:00,235.0,7.74,232.0,9.13,12.09,47.59359,-54.27349
2024-03-03 04:34:00+00:00,244.0,8.16,247.0,9.75,12.09,47.59359,-54.27349
2024-03-03 04:44:00+00:00,234.0,9.18,233.0,10.36,12.09,47.59359,-54.27349
2024-03-03 04:54:00+00:00,236.0,8.99,243.0,10.7,12.09,47.59359,-54.27349
2024-03-03 05:04:00+00:00,242.0,9.29,241.0,10.8,12.09,47.59359,-54.27349
2024-03-03 05:14:00+00:00,238.0,9.42,242.0,11.16,12.01,47.59359,-54.27349
2024-03-03 05:24:00+00:00,238.0,8.35,240.0,10.75,12.01,47.59359,-54.27349
2024-03-03 05:34:00+00:00,237.0,9.85,236.0,11.91,12.01,47.59359,-54.27349
2024-03-03 05:44:00+00:00,241.0,9.92,241.0,11.57,12.01,47.59359,-54.27349
2024-03-03 05:54:00+00:00,241.0,10.52,238.0,11.79,12.01,47.59359,-54.27349
2024-03-03 06:04:00+00:00,235.0,11.21,236.0,12.21,12.01,47.59359,-54.27349
2024-03-03 06:14:00+00:00,235.0,10.89,236.0,11.88,12.01,47.59359,-54.27349
2024-03-03 06:24:00+00:00,235.0,11.09,236.0,12.1,12.01,47.59359,-54.27349
2024-03-03 06:34:00+00:00,236.0,10.43,233.0,12.03,12.01,47.59359,-54.27349
2024-03-03 06:44:00+00:00,238.0,10.49,237.0,11.82,12.01,47.59359,-54.27349
2024-03-03 06:54:00+00:00,215.0,7.82,229.0,9.91,12.01,47.59359,-54.27349
2024-03-03 07:04:00+00:00,218.0,8.09,234.0,10.8,12.01,47.59359,-54.27349
2024-03-03 07:14:00+00:00,221.0,7.04,236.0,9.81,12.01,47.59359,-54.27349
2024-03-03 07:24:00+00:00,245.0,9.9,242.0,11.32,12.01,47.59359,-54.27349
2024-03-03 07:34:00+00:00,239.0,10.42,240.0,12.0,12.01,47.59359,-54.27349
2024-03-03 07:44:00+00:00,238.0,11.17,234.0,12.31,12.01,47.59359,-54.27349
2024-03-03 07:54:00+00:00,242.0,10.65,241.0,11.69,12.01,47.59359,-54.27349
2024-03-03 08:04:00+00:00,240.0,10.79,241.0,11.79,12.01,47.59359,-54.27349
2024-03-03 08:14:00+00:00,245.0,9.26,250.0,11.31,12.01,47.59359,-54.27349
2024-03-03 08:24:00+00:00,243.0,9.94,244.0,11.73,12.01,47.59359,-54.27349
2024-03-03 08:34:00+00:00,242.0,11.06,237.0,12.25,12.01,47.59359,-54.27349
2024-03-03 08:44:00+00:00,244.0,10.57,244.0,11.4,12.01,47.59359,-54.27349
2024-03-03 08:54:00+00:00,249.0,10.77,248.0,11.31,12.01,47.59359,-54.27349
2024-03-03 09:04:00+00:00,247.0,10.88,246.0,11.65,12.01,47.59359,-54.27349
2024-03-03 09:14:00+00:00,245.0,10.64,245.0,11.41,11.93,47.59359,-54.27349
2024-03-03 09:24:00+00:00,247.0,10.86,248.0,11.52,11.93,47.59359,-54.27349
2024-03-03 09:34:00+00:00,238.0,9.68,242.0,11.35,11.93,47.59359,-54.27349
2024-03-03 09:44:00+00:00,240.0,9.62,240.0,11.22,11.93,47.59359,-54.27349
2024-03-03 09:54:00+00:00,228.0,8.81,235.0,11.15,11.93,47.59359,-54.27349
2024-03-03 10:04:00+00:00,217.0,8.37,227.0,11.74,11.93,47.59359,-54.27349
2024-03-03 10:14:00+00:00,229.0,9.03,234.0,11.08,11.93,47.59359,-54.27349
2024-03-03 10:24:00+00:00,219.0,7.92,233.0,11.02,11.93,47.59359,-54.27349
2024-03-03 10:34:00+00:00,225.0,9.56,233.0,12.47,11.93,47.59359,-54.27349
2024-03-03 10:44:00+00:00,223.0,9.83,229.0,11.69,11.93,47.59359,-54.27349
2024-03-03 10:54:00+00:00,231.0,8.86,234.0,11.29,11.93,47.59359,-54.27349
2024-03-03 11:04:00+00:00,232.0,10.52,237.0,12.04,11.93,47.59359,-54.27349
2024-03-03 11:14:00+00:00,225.0,8.37,231.0,11.12,12.01,47.59359,-54.27349
2024-03-03 11:24:00+00:00,224.0,8.18,234.0,11.3,12.01,47.59359,-54.27349
2024-03-03 11:34:00+00:00,225.0,9.73,228.0,11.72,12.01,47.59359,-54.27349
2024-03-03 11:44:00+00:00,227.0,8.49,234.0,11.13,12.01,47.59359,-54.27349
2024-03-03 11:54:00+00:00,235.0,9.55,239.0,12.09,12.01,47.59359,-54.27349
2024-03-03 12:04:00+00:00,228.0,9.15,241.0,11.71,12.01,47.59359,-54.27349
2024-03-03 12:14:00+00:00,226.0,7.92,237.0,10.97,13.13,47.59359,-54.27349
2024-03-03 12:24:00+00:00,220.0,9.01,231.0,11.14,13.13,47.59359,-54.27349
2024-03-03 12:34:00+00:00,220.0,9.17,230.0,11.25,13.13,47.59359,-54.27349
2024-03-03 12:44:00+00:00,221.0,9.73,229.0,11.73,13.13,47.59359,-54.27349
2024-03-03 12:54:00+00:00,226.0,10.74,230.0,12.4,13.13,47.59359,-54.27349
2024-03-03 13:04:00+00:00,214.0,9.63,222.0,11.86,13.13,47.59359,-54.27349
2024-03-03 13:14:00+00:00,205.0,8.86,204.0,9.72,12.73,47.59359,-54.27349
2024-03-03 13:24:00+00:00,178.0,8.18,215.0,9.9,12.73,47.59359,-54.27349
2024-03-03 13:34:00+00:00,226.0,9.49,233.0,11.54,12.73,47.59359,-54.27349
2024-03-03 13:44:00+00:00,215.0,7.7,230.0,9.99,12.73,47.59359,-54.27349
2024-03-03 13:54:00+00:00,220.0,8.25,225.0,11.32,12.73,47.59359,-54.27349
2024-03-03 14:04:00+00:00,216.0,7.31,229.0,9.2,12.73,47.59359,-54.27349
2024-03-03 14:14:00+00:00,217.0,6.61,229.0,8.54,12.73,47.59359,-54.27349
2024-03-03 14:24:00+00:00,221.0,7.31,239.0,10.14,12.73,47.59359,-54.27349
2024-03-03 14:34:00+00:00,230.0,7.81,227.0,9.06,12.73,47.59359,-54.27349
2024-03-03 14:44:00+00:00,230.0,7.73,237.0,9.33,12.73,47.59359,-54.27349
2024-03-03 14:54:00+00:00,232.0,8.35,241.0,10.44,12.73,47.59359,-54.27349
2024-03-03 15:04:00+00:00,238.0,8.84,245.0,10.19,12.73,47.59359,-54.27349
2024-03-03 15:14:01+00:00,230.0,8.64,235.0,10.3,12.89,47.59359,-54.27349
2024-03-03 15:24:01+00:00,227.0,7.69,228.0,9.54,12.89,47.59359,-54.27349
2024-03-03 15:34:01+00:00,228.0,7.81,223.0,9.41,12.89,47.59359,-54.27349
2024-03-03 15:44:01+00:00,227.0,7.73,214.0,9.16,12.89,47.59359,-54.27349
2024-03-03 15:54:01+00:00,224.0,7.33,215.0,8.87,12.89,47.59359,-54.27349
2024-03-03 16:04:01+00:00,212.0,7.37,206.0,8.23,12.89,47.59359,-54.27349
2024-03-03 16:14:00+00:00,214.0,8.33,234.0,11.36,13.53,47.59359,-54.27349
2024-03-03 16:24:00+00:00,214.0,9.0,229.0,11.78,13.53,47.59359,-54.27349
2024-03-03 16:34:00+00:00,213.0,9.49,226.0,11.87,13.53,47.59359,-54.27349
2024-03-03 16:44:00+00:00,215.0,9.81,226.0,12.27,13.53,47.59359,-54.27349
2024-03-03 16:54:00+00:00,226.0,10.63,226.0,12.55,13.53,47.59359,-54.27349
2024-03-03 17:04:00+00:00,216.0,9.13,228.0,11.41,13.53,47.59359,-54.27349
2024-03-03 17:14:00+00:00,216.0,9.2,229.0,11.41,13.37,47.59359,-54.27349
2024-03-03 17:24:00+00:00,224.0,10.14,232.0,12.16,13.37,47.59359,-54.27349
2024-03-03 17:34:00+00:00,224.0,10.41,227.0,12.6,13.37,47.59359,-54.27349
2024-03-03 17:44:00+00:00,224.0,9.9,229.0,12.06,13.37,47.59359,-54.27349
2024-03-03 17:54:00+00:00,224.0,11.15,227.0,13.11,13.37,47.59359,-54.27349
2024-03-03 18:04:00+00:00,226.0,9.77,234.0,12.46,13.37,47.59359,-54.27349
2024-03-03 18:14:00+00:00,244.0,10.89,255.0,14.07,13.53,47.59359,-54.27349
2024-03-03 18:24:00+00:00,230.0,8.87,230.0,11.28,13.53,47.59359,-54.27349
2024-03-03 18:34:00+00:00,227.0,12.07,225.0,13.28,13.53,47.59359,-54.27349
2024-03-03 18:44:00+00:00,224.0,11.13,223.0,12.95,13.53,47.59359,-54.27349
2024-03-03 18:54:00+00:00,222.0,9.83,229.0,11.84,13.53,47.59359,-54.27349
2024-03-03 19:04:00+00:00,223.0,8.57,217.0,9.85,13.53,47.59359,-54.27349
2024-03-03 19:14:00+00:00,228.0,8.99,229.0,10.15,13.37,47.59359,-54.27349
2024-03-03 19:24:00+00:00,232.0,8.73,231.0,9.97,13.37,47.59359,-54.27349
2024-03-03 19:34:00+00:00,247.0,12.0,250.0,14.59,13.37,47.59359,-54.27349
2024-03-03 19:44:00+00:00,230.0,9.56,236.0,11.54,13.37,47.59359,-54.27349
2024-03-03 19:54:00+00:00,218.0,8.44,229.0,11.16,13.37,47.59359,-54.27349
2024-03-03 20:04:00+00:00,218.0,10.66,223.0,12.34,13.37,47.59359,-54.27349
2024-03-03 20:14:00+00:00,222.0,9.99,228.0,11.92,12.73,47.59359,-54.27349
2024-03-03 20:24:00+00:00,226.0,9.99,231.0,12.03,12.73,47.59359,-54.27349
2024-03-03 20:34:00+00:00,224.0,10.27,229.0,12.55,12.73,47.59359,-54.27349
2024-03-03 20:44:00+00:00,219.0,11.53,222.0,13.4,12.73,47.59359,-54.27349
2024-03-03 20:54:00+00:00,220.0,12.17,224.0,13.54,12.73,47.59359,-54.27349
2024-03-03 21:04:00+00:00,218.0,9.86,230.0,12.08,12.73,47.59359,-54.27349
2024-03-03 21:14:00+00:00,215.0,10.19,215.0,13.94,12.33,47.59359,-54.27349
2024-03-03 21:24:00+00:00,213.0,10.02,225.0,12.05,12.33,47.59359,-54.27349
2024-03-03 21:34:00+00:00,218.0,10.84,226.0,12.92,12.33,47.59359,-54.27349
2024-03-03 21:44:00+00:00,221.0,11.41,222.0,12.92,12.33,47.59359,-54.27349
2024-03-03 21:54:00+00:00,219.0,8.21,231.0,11.39,12.33,47.59359,-54.27349
2024-03-03 22:04:00+00:00,222.0,8.7,234.0,11.68,12.33,47.59359,-54.27349
2024-03-03 22:14:00+00:00,219.0,7.83,231.0,10.19,12.25,47.59359,-54.27349
2024-03-03 22:24:00+00:00,219.0,8.28,233.0,11.43,12.25,47.59359,-54.27349
2024-03-03 22:34:00+00:00,213.0,7.48,223.0,8.81,12.25,47.59359,-54.27349
2024-03-03 22:44:00+00:00,222.0,9.08,231.0,11.68,12.25,47.59359,-54.27349
2024-03-03 22:54:00+00:00,218.0,8.54,231.0,11.63,12.25,47.59359,-54.27349
2024-03-03 23:04:00+00:00,211.0,7.41,208.0,8.06,12.25,47.59359,-54.27349
2024-03-03 23:14:00+00:00,210.0,7.56,210.0,8.26,12.17,47.59359,-54.27349
2024-03-03 23:24:00+00:00,212.0,6.58,212.0,7.21,12.17,47.59359,-54.27349
2024-03-03 23:34:00+00:00,206.0,7.16,207.0,7.78,12.17,47.59359,-54.27349
2024-03-03 23:44:00+00:00,209.0,5.99,213.0,7.74,12.17,47.59359,-54.27349
2024-03-03 23:54:00+00:00,218.0,5.77,220.0,7.47,12.17,47.59359,-54.27349
